• Join FlightAware (Why Join?)
  • Login
  • US Flag GB Flag 
07:53 EST


 

Airport Tracker/Info


-or-


 

Live Flight TrackerFlight Track Log ✈ DAL268 ✈ 15-Apr-2013 ✈ KATL - KJFK

Flight Track Log - Related Links

Times and Time Zones

All times are in EDT time to prevent confusion due to time zone crossing. See the DAL268 flight status page for this flight to view local times or setup timezone preferences in your user account.

Time Position Orientation Groundspeed Altitude Reporting Facility
EDT Latitude Longitude Course Direction KTS MPH feet Rate Location/Type
18:26 33.6331 -84.3706 64° Northeast 441 507 2,500  Level Atlanta Center
18:27 33.6333 -84.3333 89° East 233 268 3,300 2,045 Climbing Atlanta TRACON
18:28 33.6333 -84.2333 90° East 281 323 5,500 2,487 Climbing Atlanta TRACON
18:29 33.6336 -84.0911 90° East 317 365 9,600 2,211 Climbing Atlanta Center
18:30 33.6397 -83.9814 86° East 317 365 11,100 1,450 Climbing Atlanta Center
18:31 33.6481 -83.8567 85° East 351 404 12,500 1,700 Climbing Atlanta Center
18:32 33.6646 -83.5976 64° Northeast  Level FlightAware Approximate
18:32 33.6561 -83.7169 86° East 391 450 14,500  Level Atlanta Center
18:33 33.6828 -83.5819 77° East 414 476 16,700 1,950 Climbing Atlanta Center
18:34 33.7364 -83.4492 64° Northeast 414 476 18,400 1,700 Climbing Atlanta Center
18:35 33.7900 -83.3139 64° Northeast 441 507 20,100 1,550 Climbing Atlanta Center
18:36 33.8433 -83.1708 66° East 455 524 21,500 1,300 Climbing Atlanta Center
18:37 33.8756 -83.0331 74° East 468 539 22,700 1,350 Climbing Atlanta Center
18:38 33.9139 -82.8697 74° East 482 555 24,200 1,450 Climbing Atlanta Center
18:39 33.9561 -82.7114 72° East 495 570 25,600 1,450 Climbing Atlanta Center
18:40 33.9919 -82.5506 75° East 495 570 27,100 1,500 Climbing Atlanta Center
18:41 34.0336 -82.3944 72° East 495 570 28,600 1,350 Climbing Atlanta Center
18:42 34.0942 -82.2453 64° Northeast 495 570 29,800 1,200 Climbing Atlanta Center
18:43 34.1567 -82.1008 62° Northeast 483 556 31,000 1,000 Climbing Atlanta Center
18:44 34.2211 -81.9561 62° Northeast 483 556 31,800 700 Climbing Atlanta Center
18:45 34.2856 -81.8139 61° Northeast 483 556 32,400 600 Climbing Atlanta Center
18:46 34.3475 -81.6686 63° Northeast 483 556 33,000 300 Climbing Atlanta Center
18:47 34.4092 -81.5236 63° Northeast 483 556 33,000  Level Atlanta Center
18:48 34.4708 -81.3781 63° Northeast 478 550 33,000  Level Atlanta Center
18:49 34.5344 -81.2322 62° Northeast 478 550 33,000  Level Atlanta Center
18:50 34.5936 -81.0892 63° Northeast 478 550 33,000  Level Atlanta Center
18:51 34.6589 -80.9403 62° Northeast 484 557 33,000  Level Atlanta Center
18:52 34.7236 -80.7864 63° Northeast 484 557 33,000  Level Atlanta Center
18:53 34.7864 -80.6372 63° Northeast 482 555 33,000  Level Atlanta Center
18:56 34.9283 -80.2989 63° Northeast 510 587 33,000  Level Washington Center
18:57 34.9881 -80.1553 63° Northeast 490 564 33,000  Level Washington Center
18:58 35.0519 -80.0117 61° Northeast 496 571 33,000  Level Washington Center
18:59 35.1136 -79.8653 63° Northeast 496 571 33,000  Level Washington Center
19:00 35.1731 -79.7186 64° Northeast 496 571 33,000  Level Washington Center
19:01 35.2344 -79.5692 63° Northeast 501 577 33,000  Level Washington Center
19:02 35.2933 -79.4244 63° Northeast 501 577 33,000  Level Washington Center
19:03 35.3564 -79.2772 62° Northeast 501 577 33,000  Level Washington Center
19:04 35.4175 -79.1269 63° Northeast 496 571 33,000  Level Washington Center
19:05 35.4736 -78.9842 64° Northeast 471 542 33,000  Level Washington Center
19:06 35.5319 -78.8411 63° Northeast 471 542 33,000  Level Washington Center
19:07 35.5903 -78.6903 65° Northeast 480 552 33,000  Level Washington Center
19:08 35.6611 -78.5294 62° Northeast 480 552 33,000  Level Washington Center
19:09 35.7167 -78.3781 66° East 480 552 33,000  Level Washington Center
19:10 35.7744 -78.2314 64° Northeast 480 552 33,000  Level Washington Center
19:11 35.8317 -78.0847 64° Northeast 480 552 33,000  Level Washington Center
19:12 35.8889 -77.9381 64° Northeast 480 552 33,000  Level Washington Center
19:13 35.9461 -77.7883 65° Northeast 480 552 33,000  Level Washington Center
19:14 36.0133 -77.6489 59° Northeast 473 544 33,000  Level Washington Center
19:15 36.0925 -77.5197 53° Northeast 467 537 33,000  Level Washington Center
19:16 36.1594 -77.3800 59° Northeast 467 537 33,000  Level Washington Center
19:17 36.1597 -77.2128 90° East 457 526 33,000  Level Washington Center
19:18 36.1472 -77.0478 95° East 462 532 33,000  Level Washington Center
19:19 36.1367 -76.8753 94° East 473 544 33,000  Level Washington Center
19:20 36.1736 -76.7164 74° East 475 547 33,000  Level Washington Center
19:21 36.2644 -76.6147 42° Northeast 422 486 33,000  Level Washington Center
19:22 36.3756 -76.5464 26° Northeast 412 474 33,000  Level Washington Center
19:23 36.4844 -76.4806 26° Northeast 422 486 33,000  Level Washington Center
19:24 36.5914 -76.4119 27° Northeast 422 486 33,000  Level Washington Center
19:25 36.7025 -76.3433 26° Northeast 427 491 33,000  Level Washington Center
19:26 36.8092 -76.2717 28° Northeast 427 491 33,000  Level Washington Center
19:27 36.9161 -76.1997 28° Northeast 427 491 33,000  Level Washington Center
19:28 37.0206 -76.1433 23° Northeast 432 497 33,000  Level Washington Center
19:29 37.1272 -76.0711 28° Northeast 432 497 33,000  Level Washington Center
19:30 37.2361 -76.0014 27° Northeast 432 497 33,000  Level Washington Center
19:31 37.3447 -75.9314 27° Northeast 432 497 33,000  Level Washington Center
19:32 37.4533 -75.8639 26° Northeast 427 491 33,000  Level Washington Center
19:33 37.5619 -75.7961 26° Northeast 427 491 33,000  Level Washington Center
19:34 37.6683 -75.7256 28° Northeast 427 491 33,000  Level Washington Center
19:35 37.7769 -75.6522 28° Northeast 427 491 33,000  Level Washington Center
19:36 37.8853 -75.5867 26° Northeast 427 491 33,000  Level Washington Center
19:37 37.9936 -75.5128 28° Northeast 427 491 33,000  Level Washington Center
19:38 38.1022 -75.4414 27° Northeast 427 491 33,000  Level Washington Center
19:39 38.2125 -75.3778 24° Northeast 427 491 33,000  Level Washington Center
19:40 38.3292 -75.2981 28° Northeast 427 491 33,000  Level Washington Center
19:41 38.4353 -75.2258 28° Northeast 427 491 33,000  Level Washington Center
19:42 38.5456 -75.1617 24° Northeast 427 491 33,000  Level Washington Center
19:43 38.6536 -75.0867 28° Northeast 427 491 33,000  Level Washington Center
19:44 38.7617 -75.0219 25° Northeast 427 491 33,000  Level Washington Center
19:45 38.8697 -74.9492 28° Northeast 427 491 33,000 -350 Level Washington Center
19:46 38.9778 -74.8814 26° Northeast 427 491 32,300 -1,700 Descending Washington Center
19:47 39.0836 -74.8108 27° Northeast 427 491 29,600 -2,800 Descending Washington Center
19:48 39.1808 -74.7133 38° Northeast 433 498 26,700 -2,205 Descending Washington Center
19:48 39.2692 -74.6136 41° Northeast 441 507 25,300 -1,795 Descending New York Center
19:49 39.3492 -74.5294 39° Northeast 441 507 23,200 -2,430 Descending New York Center
19:51 39.4461 -74.4244 40° Northeast 417 480 20,400 -2,400 Descending New York Center
19:51 39.5306 -74.3292 41° Northeast 406 467 18,400 -1,150 Descending New York Center
19:53 39.6058 -74.2494 39° Northeast 391 450 18,100 -1,462 Descending New York Center
19:53 39.6942 -74.1514 40° Northeast 386 444 15,500 -2,339 Descending New York Center
19:54 39.7736 -74.0661 40° Northeast 374 430 13,500 -1,967 Descending New York Center
19:56 39.8533 -73.9806 39° Northeast 364 419 11,500 -1,230 Descending New York Center
19:57 39.9317 -73.9272 28° Northeast 352 405 11,000 -248 Descending New York Center
19:58 40.0083 -73.8739 28° Northeast 321 369 11,000 -915 Level New York Center
19:58 40.0850 -73.8067 34° Northeast 299 344 9,200 -1,692 Descending New York Center
19:59 40.1492 -73.7417 38° Northeast 294 338 7,700 -1,537 Descending New York Center
20:00 40.1833 -73.7167 29° Northeast 291 335 7,100 -1,390 Descending New York TRACON
20:01 40.2500 -73.7667 330° Northwest 267 307 5,800 -1,400 Descending New York TRACON
20:02 40.3000 -73.8333 315° West 261 300 4,300 -1,400 Descending New York TRACON
20:03 40.3500 -73.9000 315° West 265 305 3,000 -772 Descending New York TRACON
20:04 40.3842 -73.9236 332° Northwest 256 295 3,000  Level New York Center
20:04 40.4167 -73.9333 347° North 256 295 3,000  Level New York TRACON
20:05 40.4833 -73.9500 349° North 229 264 3,000 -500 Level New York TRACON
20:06 40.5500 -73.9500 360° North 230 265 2,000 -700 Descending New York TRACON
20:07 40.5833 -73.9167 37° Northeast 202 232 1,600 -400 Descending New York TRACON
20:08 40.6333 -73.8833 27° Northeast 182 209 1,200 -450 Descending New York TRACON
20:09 40.6667 -73.8500 37° Northeast 147 169 700 3,722 Descending New York TRACON
20:10 40.6775 -73.7811 78° East 115 132 11,000 3,911 Climbing New York Center
20:11 40.6889 -73.7406 70° East 115 132 11,000  Level New York Center
20:12 40.7003 -73.7000 70° East 115 132 11,000  Level New York Center
20:14 40.7117 -73.6594 70° East 115 132 11,000  Level New York Center
20:15 40.7164 -73.6433 69° East 115 132 11,000  Level New York Center
20:16 40.6610 -73.7414 233° Southwest  Level Estimated
20:23 40.6398 -73.7789 233° Southwest  Level Estimated
20:24 40.6398 -73.7789 72° East  Level Estimated